Location: Poughquag
(41.6090°N, 73.6820°W)
Time: 11:57:09
(UTC-04:00)

Transit 4A - Pass Details

Date: 03 June 2020
Orbit: 866 x 978 km, 66.8° (Epoch: 06 July)

Event Time Altitude Azimuth Distance (km) Brightness Sun altitude
Rises 00:13:02 0° 164° (SSE) 3,433 - -25.4°
Reaches altitude 10° 00:16:12 10° 147° (SSE) 2,503 - -25.5°
Maximum altitude 00:20:04 19° 104° (ESE) 1,968 - -25.6°
Exits shadow 00:20:45 18° 95° (E) 1,990 9.5 -25.6°
Drops below altitude 10° 00:23:59 10° 62° (ENE) 2,538 10.4 -25.7°
Sets 00:27:12 0° 45° (NE) 3,499 11.4 -25.7°
